Regional Weather Roundup
Issued by NWS Northern Indiana

Home | Current Version | Previous Version | Text Only | Print | Product List | Glossary Off
Versions: 1 2 3 4 5 6 7 8 9 10 11 12 13 14 15 16 17 18 19 20 21 22 23 24 25 26 27 28 29 30 31 32 33 34 35 36 37 38 39 40 41 42 43 44 45 46 47 48 49 50

000
ASUS43 KIWX 281600
RWRIWX

KIWX WEATHER ROUNDUP
NATIONAL WEATHER SERVICE NORTHERN INDIANA
1200 PM EDT FRI APR 28 2017

NOTE: "FAIR" INDICATES FEW OR NO CLOUDS BELOW 12,000 FEET WITH NO
SIGNIFICANT WEATHER AND/OR OBSTRUCTIONS TO VISIBILITY.

* THESE STATIONS ARE NOT UNDER NWS QUALITY CONTROL. THEY ALSO MAY NOT
  REPORT WEATHER SUCH AS PRECIPITATION OR FOG.

INZ001>027-281700-
NORTHERN INDIANA

CITY           SKY/WX    TMP DP  RH WIND       PRES   REMARKS
GARY*          PTSUNNY   54  45  71 VRB3      29.96R
SOUTH BEND     CLOUDY    55  44  66 S13       29.99R
ELKHART*       PTSUNNY   57  43  58 S12       29.97
GOSHEN         CLOUDY    56  42  59 S10       29.98R
MONTICELLO*    CLOUDY    55  44  68 S7        29.99R
ANGOLA*        SUNNY     55  45  67 S9        29.97S
FORT WAYNE     CLOUDY    56  44  64 S16       30.01R
PERU/GRISSOM   CLOUDY    55  48  77 S17       30.00R

$$
INZ028>050-281700-
CENTRAL INDIANA

CITY           SKY/WX    TMP DP  RH WIND       PRES   REMARKS
LAFAYETTE      CLOUDY    54  47  77 S6        29.98S
KOKOMO*        CLOUDY    54  46  74 S13       30.03R
MUNCIE*        PTSUNNY   55  45  68 S7        30.00S
INDIANAPOLIS   CLOUDY    53  47  79 SE5       30.00R

$$
MIZ043>046-050>051-056>058-064>065-071>073-077>080-281700-
SOUTHWEST LOWER MICHIGAN

CITY           SKY/WX    TMP DP  RH WIND       PRES   REMARKS
BATTLE CREEK   CLOUDY    58  44  60 SW9       29.95F
BENTON HARBOR  CLOUDY    55  44  66 W7        29.96R
COLDWATER*     PTSUNNY   58  42  54 SW7       29.96F
HILLSDALE*     CLOUDY    54  41  62 S8        29.97F
HOLLAND        MOSUNNY   52  42  69 W10       29.96F
GRAND RAPIDS   PTSUNNY   53  43  68 SW15      29.96R
KALAMAZOO      CLOUDY    58  41  53 W6        29.95F
STURGIS*       PTSUNNY   57  44  62 S9        29.96R
THREE RIVERS*  CLOUDY    56  43  61 S6        29.96R

$$
OHZ001>008-015>018-024>025-281700-
NORTHWEST OHIO

CITY           SKY/WX    TMP DP  RH WIND       PRES   REMARKS
DEFIANCE       PTSUNNY   55  41  59 S9        29.99F
FINDLAY        MOSUNNY   58  40  51 S9        30.01S
TOLEDO EXPRESS CLOUDY    57  40  52 S9        30.00F
TOLEDO METCALF CLOUDY    58  42  55 S10       30.01F
LIMA           CLOUDY    55  45  68 S10       30.02S

$$
AND FOR LAKE MICHIGAN COASTAL AND OPEN LAKE BUOY OBSERVATIONS

STATION/POSITION TEMP    WIND        PRES    VSBY  WAVE
                 AIR SEA DIR/SP/G                  HT/PER
                 (F)     (DEG/KT/KT) (MB)    (MI)  (FT/S)
CALUMET HARBOR    46      50/  5/  6 1014.2R
MICHIGAN CITY     46      20/  6/  7   N/A
BURNS HARBOR      49      40/  5/  5 1015.2R
SOUTH LAKE BUOY   42 41  270/  4/  4 1014.9          1/ 3
4 MI NW BRIDGMAN  47 47  350/  4/  6 1015.7R         1
MICHIGAN CITY     45 46                N/A           1

$$
&&



USA.gov is the U.S. government's official web portal to all federal, state and local government web resources and services.